Lid_Strength_Index
12 13 13 14 15 16 16 16 17 17 18 18 18 17 17 17 17 16 16 16 16 16 16 15 15 14 14 14 14 14 14 14
12 12 13 14 16 16 16 17 18 18 18 18 18 17 17 17 17 16 16 16 16 16 16 16 16 15 15 15 15 15 15 15
11 12 14 14 16 16 17 17 17 18 18 18 17 17 18 17 17 16 16 16 16 16 16 16 16 15 15 15 15 15 16 15
11 12 13 14 16 17 17 17 17 18 18 18 18 18 18 17 17 16 17 16 16 16 16 16 16 16 15 15 14 14 15 16
12 12 13 14 15 16 17 17 17 18 18 18 18 18 18 17 17 17 17 17 16 16 16 16 16 15 15 14 14 15 14 15
12 11 12 13 14 15 16 17 17 18 18 17 17 17 17 17 17 17 17 17 16 16 15 15 14 14 15 15 14 15 16 15
12 12 11 12 13 14 15 16 16 17 17 17 17 17 17 17 17 17 17 17 16 16 15 14 14 13 13 14 14 15 16 16
12 12 12 12 12 14 16 16 17 17 17 17 17 17 17 17 17 17 17 16 16 16 15 15 14 13 13 14 15 16 17 17
12 12 13 15 15 15 16 16 16 17 17 17 17 17 17 17 17 17 16 17 16 16 15 15 14 13 14 15 16 16 18 17
12 14 15 16 16 16 17 17 17 17 17 17 17 17 17 17 17 17 16 16 16 15 15 15 14 13 15 15 16 17 18 18
15 17 17 17 16 16 17 17 18 18 17 17 16 16 17 17 16 16 16 15 15 16 16 16 16 14 15 16 17 18 19 19
17 16 17 18 17 18 19 19 18 18 17 17 17 17 17 16 16 16 16 16 16 17 18 17 17 16 15 15 17 19 20 20
18 18 20 18 18 18 19 19 18 18 18 18 18 16 16 16 16 16 17 18 19 20 20 19 19 16 15 15 16 18 21 20
18 19 20 20 18 19 20 19 19 18 19 19 18 16 15 16 16 17 17 19 20 20 22 22 20 19 16 15 16 17 21 20
19 20 20 20 18 19 19 18 18 19 18 17 17 16 16 16 17 18 19 20 21 23 24 24 22 20 19 19 21 19 23 23
18 19 19 20 21 21 19 18 18 17 17 17 17 17 18 18 18 19 21 20 23 26 24 25 27 23 19 22 25 29 25 34
19 19 20 20 20 20 18 17 17 17 17 17 18 19 20 20 21 17 18 16 16 17 21 25 18 16 15 15 17 17 22 37
18 19 21 21 21 20 18 17 17 17 18 19 20 21 22 22 22 23 20 15 15 16 16 17 18 16 16 16 18 19 26 40
22 22 21 21 20 19 17 17 17 18 19 20 21 22 23 23 25 23 22 25 30 21 20 17 17 17 17 17 23 34 37 43
22 21 20 20 20 19 18 18 19 20 21 22 23 25 25 28 28 28 30 30 34 35 27 30 19 18 18 19 36 37 40 43